Location: Hilton Head Island
(32.2163°N, 80.7526°W)
Time: 18:36:29
(UTC-05:00)

Transit 2A - Pass Details

Date: 25 February 2026
Orbit: 590 x 954 km, 66.7° (Epoch: 7 March)

Event Time Altitude Azimuth Distance (km) Brightness Sun altitude
Rises 21:10:10 0° 323° (NW) 3,440 10.0 -37.0°
Reaches altitude 10° 21:12:57 10° 315° (NW) 2,442 9.2 -37.6°
Enters shadow 21:16:02 26° 289° (WNW) 1,529 8.0 -38.2°
